Back to catalog

STARLINK-32727

AliveCommunicationsVLEO
NORAD 62828·PAYLOAD·🇺🇸 United States

Launched Jan 24, 2025 from Vandenberg Space Force Base

Loading…

Next Passes (next 24 hours)

TLE

FreshSource: CelesTrak SupGP

Epoch: Sep 14, 2026, 14:28 UTC

1 62828C 25018Y   26257.60326389  .00059084  00000+0  17455-2 0  2577
2 62828  53.1569 145.1624 0001147  86.8596 136.8420 15.34364169    12

Track STARLINK-32727 in real time with AllMySat

Download on the App Store